User: anonymous   Login
Location: Bush Observatory
(40.2653°N, 94.3194°W)
Time: 15:18:23
(UTC-05:00)
Language:

Cosmos 1933 Rocket - Orbit

View from above orbital plane
View from above orbital plane
View from above satellite
View from above satellite

Ground track
Ground track

The orbit data is extracted from the following two-line orbital elements,

1 18959U 88020B   15184.15850082  .00000132  00000-0  13279-4 0  9990
2 18959 082.5367 218.8716 0016321 340.3603 077.8620 14.83150864474599
Epoch (UTC): 03 July 2015 03:48:14
Eccentricity: 0.0016321
inclination: 82.5367°
perigee height: 608 km
apogee height: 631 km
right ascension of ascending node: 218.8716°
argument of perigee: 340.3603°
revolutions per day: 14.83150864
mean anomaly at epoch: 77.8620°
orbit number at epoch: 47459

The dashed part of the orbit path shows where the satellite is in the earth's shadow,  

DLR